Temp
-14 -14 -14 -15 -15 -15 -15 -16 -16 -16 -16 -16 -16 -17 -17 -16 -16 -16 -16 -17 -17 -16 -16 -15 -15 -15 -14 -14 -15 -15 -15 -15 -15 -14 -14 -14 -13 -13 -13 -14 -15 -14 -14 -14 -14
-14 -14 -15 -15 -15 -15 -15 -15 -16 -16 -16 -16 -16 -16 -16 -16 -16 -16 -16 -16 -16 -16 -16 -15 -15 -14 -14 -15 -15 -15 -15 -15 -15 -14 -14 -13 -13 -15 -16 -15 -15 -14 -14 -14 -14
-14 -14 -15 -15 -15 -15 -15 -16 -16 -16 -16 -16 -16 -16 -16 -16 -16 -16 -16 -16 -16 -16 -15 -15 -14 -14 -15 -15 -15 -15 -15 -15 -15 -14 -14 -14 -14 -16 -15 -14 -14 -14 -14 -14 -14
-14 -14 -15 -15 -15 -15 -15 -16 -16 -16 -16 -16 -16 -16 -16 -16 -16 -16 -16 -17 -16 -16 -15 -15 -15 -15 -15 -15 -15 -15 -16 -15 -15 -14 -14 -14 -15 -15 -14 -14 -15 -14 -14 -14 -14
-14 -14 -15 -15 -15 -15 -16 -16 -15 -16 -16 -16 -16 -16 -17 -16 -16 -16 -16 -17 -16 -16 -16 -16 -16 -16 -16 -16 -16 -15 -15 -15 -16 -15 -16 -15 -15 -15 -15 -15 -14 -14 -14 -14 -14
-14 -14 -15 -15 -15 -16 -16 -16 -15 -16 -16 -16 -16 -17 -17 -17 -17 -16 -16 -16 -16 -16 -16 -17 -16 -16 -16 -15 -16 -16 -16 -16 -16 -15 -15 -15 -15 -15 -15 -15 -15 -15 -15 -14 -14
-14 -15 -15 -16 -16 -16 -16 -16 -15 -15 -16 -16 -16 -16 -17 -16 -17 -17 -16 -16 -16 -16 -17 -16 -17 -16 -16 -16 -16 -16 -16 -15 -15 -15 -15 -15 -15 -14 -15 -15 -15 -15 -15 -15 -14
-15 -15 -15 -15 -16 -16 -16 -16 -16 -16 -16 -16 -16 -17 -17 -17 -17 -17 -16 -16 -16 -17 -17 -16 -16 -16 -16 -16 -16 -16 -16 -15 -15 -15 -14 -15 -15 -15 -15 -15 -15 -15 -14 -14 -14
-15 -15 -16 -16 -16 -16 -16 -16 -16 -16 -16 -16 -17 -17 -17 -17 -17 -17 -16 -17 -17 -17 -17 -16 -16 -16 -17 -16 -16 -16 -16 -15 -15 -15 -15 -15 -15 -15 -15 -15 -15 -15 -14 -14 -14
-15 -15 -15 -16 -16 -16 -16 -16 -16 -16 -16 -17 -17 -17 -17 -17 -17 -17 -17 -17 -17 -17 -17 -17 -16 -16 -16 -16 -16 -15 -16 -16 -15 -15 -15 -15 -15 -15 -15 -15 -15 -15 -14 -14 -15
-15 -15 -15 -16 -16 -16 -16 -16 -16 -16 -17 -17 -17 -17 -17 -17 -17 -17 -17 -17 -17 -17 -17 -17 -17 -17 -16 -16 -16 -16 -16 -16 -16 -15 -15 -15 -15 -15 -15 -14 -14 -14 -14 -15 -15
-15 -15 -15 -16 -16 -16 -16 -16 -16 -17 -16 -17 -17 -17 -17 -17 -17 -17 -17 -17 -17 -17 -17 -16 -16 -16 -16 -16 -16 -16 -16 -16 -15 -15 -15 -15 -15 -14 -14 -14 -14 -14 -15 -16 -16
-15 -15 -16 -16 -16 -16 -16 -16 -17 -17 -17 -17 -17 -17 -17 -17 -16 -17 -17 -17 -17 -17 -16 -16 -16 -16 -16 -16 -16 -16 -16 -15 -16 -16 -15 -15 -15 -15 -15 -15 -14 -15 -15 -16 -16
-15 -15 -16 -16 -16 -16 -16 -16 -17 -17 -17 -17 -17 -17 -17 -16 -16 -16 -16 -17 -17 -17 -16 -17 -17 -17 -16 -16 -16 -16 -16 -16 -16 -16 -16 -16 -15 -15 -15 -14 -15 -15 -16 -16 -16
-15 -16 -16 -16 -16 -16 -16 -16 -17 -17 -17 -17 -17 -16 -16 -16 -16 -16 -16 -16 -16 -16 -16 -16 -16 -16 -16 -16 -16 -16 -15 -16 -16 -16 -16 -16 -15 -15 -14 -15 -15 -15 -16 -16 -16
-15 -15 -16 -16 -16 -16 -16 -16 -16 -16 -16 -16 -16 -16 -16 -16 -16 -16 -15 -16 -16 -16 -16 -16 -16 -16 -16 -16 -15 -15 -15 -15 -16 -16 -15 -15 -15 -14 -15 -15 -15 -16 -16 -16 -17
-15 -16 -16 -16 -16 -16 -16 -16 -16 -16 -16 -16 -16 -16 -16 -16 -16 -16 -16 -16 -16 -16 -16 -16 -16 -15 -15 -15 -15 -15 -15 -15 -15 -15 -15 -15 -15 -15 -15 -15 -16 -16 -16 -16 -16
-16 -16 -16 -15 -15 -16 -16 -16 -16 -16 -16 -16 -16 -16 -16 -16 -16 -16 -15 -15 -16 -16 -16 -16 -16 -15 -15 -15 -15 -15 -15 -15 -15 -15 -15 -15 -14 -14 -15 -15 -15 -16 -16 -16 -16
-16 -16 -15 -15 -15 -16 -16 -16 -16 -16 -16 -16 -15 -16 -15 -16 -16 -16 -15 -15 -15 -15 -15 -15 -15 -15 -15 -15 -15 -15 -15 -15 -15 -15 -15 -15 -14 -15 -15 -15 -15 -15 -16 -15 -15
-16 -16 -15 -15 -15 -16 -16 -16 -16 -15 -15 -15 -16 -15 -15 -16 -16 -16 -16 -16 -15 -16 -15 -15 -15 -15 -15 -15 -15 -15 -15 -15 -15 -15 -14 -14 -15 -14 -14 -15 -15 -15 -15 -15 -15
-16 -15 -15 -15 -15 -16 -16 -16 -16 -15 -15 -15 -15 -15 -15 -15 -15 -15 -15 -15 -16 -16 -16 -15 -15 -15 -15 -15 -15 -15 -15 -15 -15 -15 -14 -14 -15 -15 -15 -15 -15 -15 -15 -15 -15
-15 -15 -15 -15 -15 -15 -15 -16 -15 -15 -15 -15 -15 -15 -15 -15 -15 -15 -15 -15 -15 -16 -15 -15 -15 -15 -15 -15 -15 -15 -15 -15 -15 -15 -15 -14 -14 -14 -14 -14 -15 -15 -15 -15 -15
-15 -15 -15 -15 -15 -15 -15 -15 -15 -15 -15 -15 -15 -15 -15 -15 -15 -15 -15 -15 -15 -15 -15 -15 -15 -15 -15 -15 -15 -15 -15 -15 -15 -15 -15 -15 -14 -15 -15 -15 -15 -15 -15 -15 -15
-15 -15 -15 -15 -15 -15 -15 -15 -15 -15 -15 -15 -15 -15 -16 -16 -15 -15 -15 -15 -15 -15 -15 -15 -15 -15 -15 -15 -15 -15 -15 -15 -15 -15 -15 -15 -15 -15 -15 -15 -15 -15 -15 -16 -16
-15 -15 -15 -15 -15 -15 -15 -15 -15 -15 -15 -15 -15 -15 -15 -15 -15 -15 -15 -15 -15 -15 -15 -15 -15 -15 -15 -15 -15 -15 -15 -15 -15 -15 -15 -15 -15 -15 -15 -15 -15 -16 -16 -16 -16
-15 -14 -15 -15 -15 -15 -15 -15 -15 -15 -15 -15 -15 -15 -15 -15 -15 -15 -15 -15 -15 -15 -15 -15 -15 -15 -15 -15 -15 -15 -15 -15 -15 -15 -15 -15 -15 -15 -15 -15 -16 -16 -16 -16 -16
-15 -15 -15 -15 -15 -15 -15 -15 -15 -15 -15 -15 -15 -15 -15 -15 -15 -15 -15 -15 -15 -15 -15 -15 -15 -15 -15 -16 -16 -15 -16 -16 -15 -15 -15 -15 -16 -16 -16 -16 -16 -16 -16 -16 -17
Height
5771 5768 5765 5763 5762 5761 5760 5758 5757 5755 5754 5754 5754 5754 5753 5753 5754 5757 5757 5760 5763 5766 5769 5775 5779 5783 5787 5790 5793 5796 5798 5798 5801 5805 5807 5807 5811 5811 5814 5815 5818 5819 5818 5819 5820
5766 5763 5762 5759 5758 5757 5756 5754 5753 5752 5751 5752 5752 5752 5751 5751 5752 5754 5758 5759 5762 5765 5768 5772 5776 5780 5784 5788 5792 5795 5797 5797 5800 5803 5805 5806 5808 5809 5813 5814 5816 5817 5817 5819 5819
5761 5758 5758 5756 5755 5754 5752 5751 5751 5750 5749 5750 5751 5750 5750 5749 5751 5754 5756 5758 5760 5763 5768 5771 5775 5779 5783 5787 5792 5794 5796 5798 5799 5803 5806 5807 5807 5809 5812 5813 5814 5814 5815 5817 5818
5757 5754 5753 5753 5751 5750 5749 5748 5749 5748 5748 5749 5750 5749 5748 5749 5752 5753 5756 5756 5759 5762 5766 5770 5775 5779 5783 5787 5791 5794 5795 5798 5801 5803 5805 5806 5808 5810 5813 5814 5814 5815 5816 5817 5819
5752 5750 5749 5749 5748 5747 5746 5746 5746 5746 5747 5747 5747 5748 5748 5749 5751 5753 5755 5757 5759 5761 5764 5769 5774 5778 5783 5786 5790 5794 5796 5798 5799 5802 5804 5807 5808 5810 5812 5813 5814 5815 5816 5817 5818
5748 5746 5746 5744 5744 5743 5743 5744 5744 5744 5745 5745 5746 5747 5747 5750 5752 5753 5755 5759 5762 5765 5769 5774 5776 5778 5782 5787 5791 5794 5796 5799 5801 5803 5805 5806 5808 5809 5811 5812 5813 5814 5816 5817 5818
5743 5743 5742 5740 5740 5739 5739 5741 5742 5742 5742 5743 5745 5746 5747 5750 5751 5753 5757 5760 5764 5769 5773 5776 5779 5782 5786 5789 5791 5793 5797 5799 5801 5804 5804 5807 5809 5809 5810 5812 5813 5814 5815 5815 5816
5740 5739 5738 5737 5736 5735 5736 5738 5739 5740 5740 5742 5744 5744 5745 5748 5750 5754 5758 5761 5765 5769 5773 5776 5779 5783 5786 5789 5792 5795 5797 5797 5799 5801 5804 5807 5808 5809 5809 5811 5813 5815 5814 5815 5815
5736 5736 5734 5733 5731 5732 5733 5736 5737 5738 5738 5740 5741 5742 5745 5748 5750 5755 5758 5762 5767 5770 5774 5776 5779 5783 5787 5790 5793 5794 5796 5798 5799 5800 5803 5805 5807 5808 5809 5810 5812 5812 5811 5812 5812
5732 5732 5731 5730 5729 5730 5732 5734 5735 5737 5738 5739 5739 5742 5744 5746 5750 5755 5760 5764 5768 5772 5776 5779 5781 5785 5788 5790 5792 5793 5795 5798 5799 5802 5802 5805 5806 5807 5808 5809 5810 5810 5810 5810 5809
5729 5729 5728 5727 5727 5728 5730 5732 5734 5736 5736 5738 5738 5740 5743 5746 5750 5755 5760 5765 5769 5773 5776 5779 5782 5785 5789 5790 5791 5794 5795 5798 5798 5800 5801 5802 5804 5805 5806 5808 5808 5808 5808 5808 5807
5725 5726 5725 5725 5726 5728 5730 5731 5732 5734 5735 5737 5739 5742 5745 5748 5751 5755 5762 5767 5770 5773 5777 5781 5783 5786 5789 5790 5791 5793 5795 5797 5798 5799 5801 5801 5802 5804 5805 5806 5807 5807 5805 5805 5804
5722 5722 5722 5723 5725 5727 5728 5729 5731 5733 5735 5738 5740 5743 5747 5751 5753 5757 5763 5767 5771 5774 5777 5779 5782 5784 5787 5789 5791 5792 5794 5797 5799 5799 5799 5800 5801 5802 5803 5804 5804 5804 5803 5802 5801
5718 5719 5720 5721 5725 5726 5727 5729 5732 5734 5738 5741 5742 5746 5749 5751 5755 5758 5762 5767 5770 5773 5776 5778 5780 5782 5786 5788 5791 5792 5792 5794 5795 5797 5797 5798 5799 5799 5800 5801 5801 5800 5798 5797 5797
5714 5716 5718 5720 5723 5725 5728 5730 5733 5737 5740 5743 5745 5748 5750 5753 5756 5759 5762 5766 5770 5773 5777 5780 5781 5783 5786 5789 5790 5791 5791 5792 5793 5793 5794 5795 5795 5796 5796 5797 5796 5794 5793 5793 5792
5711 5714 5717 5720 5723 5725 5728 5732 5736 5740 5742 5745 5747 5750 5752 5755 5758 5761 5763 5767 5770 5773 5776 5779 5781 5783 5785 5787 5788 5789 5789 5789 5791 5791 5791 5792 5793 5793 5793 5793 5793 5792 5790 5789 5787
5708 5712 5716 5720 5724 5726 5730 5734 5738 5740 5744 5747 5749 5752 5754 5757 5760 5762 5765 5768 5770 5772 5774 5776 5778 5781 5783 5784 5786 5787 5788 5788 5788 5788 5788 5788 5787 5789 5789 5789 5788 5787 5785 5783 5782
5706 5710 5714 5719 5724 5727 5732 5736 5739 5742 5745 5747 5751 5754 5756 5758 5761 5763 5765 5767 5769 5771 5772 5774 5777 5779 5781 5782 5783 5783 5784 5785 5785 5785 5786 5785 5785 5786 5786 5785 5784 5783 5780 5779 5777
5702 5708 5712 5718 5723 5727 5732 5736 5740 5743 5747 5750 5752 5755 5757 5759 5762 5763 5765 5767 5768 5770 5772 5773 5775 5777 5778 5779 5781 5781 5782 5783 5783 5782 5782 5782 5783 5783 5782 5782 5780 5779 5778 5775 5773
5698 5705 5710 5717 5722 5727 5732 5737 5741 5744 5748 5750 5753 5755 5756 5758 5760 5761 5763 5765 5766 5768 5769 5771 5773 5774 5776 5777 5778 5779 5781 5781 5781 5780 5780 5780 5780 5780 5779 5779 5778 5776 5774 5771 5768
5694 5701 5707 5714 5720 5726 5731 5737 5741 5745 5748 5751 5752 5753 5754 5755 5757 5758 5760 5762 5764 5765 5767 5769 5771 5774 5775 5776 5777 5779 5779 5780 5781 5780 5780 5779 5780 5778 5776 5775 5773 5771 5768 5765 5762
5690 5697 5704 5712 5719 5724 5730 5736 5740 5744 5747 5750 5751 5751 5751 5752 5754 5755 5757 5759 5761 5763 5765 5767 5769 5771 5774 5775 5777 5777 5778 5779 5779 5779 5778 5777 5778 5775 5773 5771 5768 5765 5762 5758 5754
5687 5694 5701 5708 5716 5723 5729 5735 5740 5743 5746 5748 5749 5749 5749 5750 5752 5752 5755 5757 5759 5762 5764 5766 5769 5770 5772 5775 5776 5776 5776 5776 5776 5775 5775 5774 5773 5771 5769 5766 5763 5759 5755 5751 5746
5683 5689 5696 5705 5714 5721 5728 5733 5739 5742 5745 5747 5748 5748 5748 5749 5750 5751 5753 5755 5758 5760 5763 5765 5767 5769 5771 5772 5773 5773 5774 5773 5773 5772 5771 5770 5768 5765 5763 5760 5756 5753 5749 5744 5739
5678 5685 5695 5703 5711 5719 5725 5732 5737 5741 5744 5746 5747 5747 5748 5748 5748 5749 5751 5753 5757 5759 5761 5763 5765 5766 5767 5768 5769 5770 5770 5770 5769 5768 5767 5766 5763 5758 5756 5753 5749 5745 5741 5736 5730
5675 5683 5692 5703 5711 5717 5722 5729 5735 5739 5742 5744 5745 5746 5746 5747 5747 5748 5749 5751 5753 5756 5758 5760 5762 5764 5764 5764 5765 5765 5766 5765 5764 5762 5761 5759 5757 5752 5749 5745 5741 5737 5732 5726 5720
5672 5681 5691 5700 5706 5712 5720 5729 5734 5737 5740 5742 5744 5745 5745 5745 5746 5747 5748 5750 5752 5754 5755 5757 5759 5759 5760 5760 5759 5761 5761 5759 5757 5756 5754 5752 5748 5745 5742 5738 5733 5728 5722 5716 5710
Wind_Speed
35 36 31 25 25 22 23 24 25 23 15 11 9 11 13 14 16 14 16 14 14 14 17 25 27 21 19 20 19 19 19 22 21 20 15 24 28 21 10 5 4 10 14 11 9
35 32 27 24 22 23 25 24 23 17 11 12 13 9 9 9 11 15 12 15 16 17 18 22 24 22 20 24 22 18 24 21 16 14 19 19 12 7 8 3 6 9 13 9 9
36 29 27 25 21 25 25 20 19 13 9 10 10 11 10 11 11 13 13 15 17 15 18 19 19 20 25 27 25 21 24 20 17 14 10 8 8 9 6 1 3 9 6 10 8
36 27 25 24 24 25 21 16 14 12 10 13 16 14 10 12 14 16 15 15 15 16 18 17 18 30 28 30 30 25 22 19 17 14 11 3 8 4 0 5 5 5 6 8 8
32 26 25 25 27 22 18 16 14 14 14 15 19 18 9 14 14 16 15 13 14 18 24 27 36 33 31 31 22 23 17 15 6 2 2 2 5 7 5 5 7 6 7 7 8
28 24 25 25 20 23 20 18 16 14 15 12 14 12 7 14 13 15 14 11 15 22 28 32 30 28 26 24 21 16 11 8 5 7 4 5 7 7 8 6 7 9 6 7 5
26 23 22 23 21 22 18 17 16 14 13 14 8 6 5 11 13 14 13 17 19 23 32 30 26 26 24 23 18 19 12 10 6 9 9 6 11 13 9 10 10 12 9 7 2
26 23 23 22 22 19 19 20 15 12 13 13 10 9 13 12 13 14 21 24 22 32 31 29 24 21 17 17 7 9 7 4 9 11 14 9 12 10 8 9 10 12 12 5 4
23 23 18 22 17 15 17 17 13 11 11 11 9 6 11 13 15 20 27 25 32 29 23 23 17 21 11 6 9 13 14 9 11 15 14 13 10 7 12 10 8 10 6 3 5
20 21 21 19 17 15 15 13 10 9 10 9 10 13 15 19 16 25 27 28 34 32 27 15 18 16 16 12 13 11 17 12 11 13 13 11 9 8 8 9 9 7 4 4 7
20 20 19 15 14 14 15 13 12 12 12 11 16 19 18 20 21 22 32 35 34 30 23 21 17 15 10 13 13 22 17 15 13 16 16 11 9 7 5 3 5 8 7 6 10
21 16 17 14 14 14 15 13 13 14 16 16 16 16 15 17 21 25 30 35 34 27 21 15 23 16 16 20 22 24 20 15 18 15 11 4 5 3 1 1 2 4 5 7 11
17 16 17 15 18 15 11 13 14 16 20 21 19 18 17 16 18 19 25 36 33 30 27 16 22 24 27 25 20 19 22 17 11 7 7 5 7 5 4 6 7 8 9 13 16
17 20 15 15 15 13 14 18 19 20 20 20 19 18 18 18 19 20 22 34 31 29 26 16 22 25 26 23 22 21 19 18 13 14 12 13 13 10 12 12 13 14 15 18 17
16 23 14 13 15 17 21 22 22 23 21 21 20 19 19 20 20 21 22 23 27 23 20 16 20 23 22 21 20 19 17 13 15 16 18 18 18 17 17 18 19 20 21 22 21
18 21 16 18 18 23 25 26 25 24 19 20 20 19 19 19 19 18 18 19 17 16 17 18 16 19 23 18 15 14 15 15 16 18 21 18 20 20 21 20 21 21 22 24 27
24 22 22 22 27 27 27 27 26 24 21 20 19 18 17 14 13 13 12 13 14 15 15 17 15 17 18 17 17 17 16 17 19 20 21 21 25 23 22 19 20 23 26 28 30
28 27 29 29 29 28 26 25 23 19 20 20 18 16 15 14 12 11 12 14 14 14 16 17 17 17 18 18 17 16 16 18 19 20 20 20 18 14 14 16 19 21 23 23 22
32 34 34 33 30 28 27 24 23 21 21 19 17 15 12 12 11 11 11 12 13 15 17 16 13 13 14 15 15 14 14 12 12 14 16 15 8 5 4 6 8 9 12 15 17
37 38 39 34 32 30 27 25 24 23 20 17 14 12 12 12 13 13 13 13 13 13 15 15 13 11 12 12 11 11 8 8 7 8 6 2 1 3 2 4 7 9 13 17 19
42 43 41 37 34 32 29 28 22 20 15 13 11 12 14 16 17 17 16 14 14 14 17 15 15 14 12 11 11 9 7 5 4 3 3 2 3 6 8 10 13 16 18 21 24
46 46 43 39 38 35 33 30 23 19 16 10 7 8 11 11 12 14 15 15 14 16 16 15 17 15 14 13 10 8 7 7 7 8 8 8 6 10 13 16 18 21 24 27 30
49 49 45 41 39 37 36 33 23 18 13 6 5 6 9 10 13 15 16 16 17 18 18 17 18 19 16 14 12 9 7 8 9 10 10 12 14 15 16 18 20 23 27 31 35
54 52 48 43 40 39 37 32 25 20 13 7 5 5 9 12 15 16 16 18 19 19 18 19 18 17 15 16 16 13 12 14 15 16 16 18 19 20 19 21 24 27 31 34 37
56 52 47 43 42 41 38 32 26 20 14 8 4 4 6 9 13 16 17 19 20 19 19 20 19 19 18 18 18 18 18 19 20 21 21 22 22 25 25 26 27 30 33 37 40
57 51 47 43 41 41 39 34 27 21 15 8 5 6 5 7 10 14 17 20 21 20 21 22 21 22 21 21 21 22 22 23 24 26 27 27 27 29 30 31 33 35 37 40 42
58 53 47 45 44 44 39 32 27 23 18 13 9 9 8 7 9 13 17 20 22 23 24 24 25 25 27 26 28 27 23 28 29 30 32 32 33 34 34 34 36 38 40 42 44
Wind_Direction
314 316 299 289 291 296 298 297 296 291 274 258 268 286 272 254 242 222 224 222 203 196 190 191 195 199 205 204 203 210 222 217 221 222 219 222 231 227 245 284 328 298 283 284 293
310 309 292 287 288 294 298 290 289 280 268 267 260 289 272 243 219 218 217 209 203 202 198 195 197 198 195 189 196 205 210 229 238 215 234 233 242 53 32 339 289 273 268 273 279
310 299 286 290 281 292 300 286 281 256 261 266 268 275 276 214 207 204 205 201 200 191 197 194 195 194 179 185 192 205 210 220 243 226 236 258 264 50 19 319 258 264 251 237 239
310 293 282 286 279 288 296 274 265 252 248 270 264 266 266 205 198 192 208 199 200 186 186 193 179 172 180 187 196 200 206 227 231 267 255 23 57 19 103 165 201 187 190 205 196
305 289 279 283 283 278 285 259 255 259 261 274 250 264 249 191 195 198 210 205 189 173 158 158 158 165 172 176 176 205 219 218 138 124 53 54 301 294 211 193 197 203 208 212 194
298 288 283 286 276 276 273 249 249 258 267 250 250 267 249 198 201 200 203 199 176 156 155 156 153 161 173 175 178 171 159 184 180 231 202 246 279 181 191 206 222 243 232 211 206
287 280 274 290 279 275 248 243 247 259 249 240 256 227 204 208 198 198 192 173 159 158 152 163 158 184 188 192 192 204 205 206 206 235 229 218 167 183 207 217 228 230 225 223 267
280 280 275 278 286 258 233 244 245 245 246 251 242 243 187 181 204 199 182 171 163 161 167 168 178 176 178 192 183 203 216 245 241 194 181 185 190 205 215 230 235 222 220 218 176
276 278 267 284 276 237 230 237 240 231 240 238 250 212 196 184 203 192 179 172 164 152 166 176 175 172 170 174 215 200 192 206 187 165 186 189 197 226 243 250 232 223 221 223 229
274 266 269 276 262 235 221 225 220 216 226 239 199 177 178 178 192 197 176 173 167 173 181 172 184 175 182 205 233 243 169 170 188 183 196 203 199 183 227 221 215 249 249 241 253
273 262 267 267 237 211 207 215 217 220 208 180 178 169 177 175 182 194 182 179 170 173 175 164 184 195 179 173 199 168 173 185 195 199 197 196 200 196 177 179 240 256 264 267 267
275 265 248 234 213 222 230 218 215 196 184 167 158 155 166 172 186 196 187 180 178 176 177 206 204 208 198 189 189 185 190 197 214 214 209 207 254 210 178 275 266 285 286 289 292
259 242 230 228 226 230 216 198 180 170 159 153 155 151 153 160 177 182 192 185 191 194 199 220 200 208 199 192 198 197 214 211 211 235 238 261 268 274 293 308 307 305 292 282 289
252 223 225 206 227 205 177 160 152 152 153 152 147 152 156 165 171 173 188 195 197 202 216 225 201 194 186 193 198 215 212 203 214 243 264 272 291 297 303 309 311 305 299 301 303
256 210 193 188 185 170 159 153 150 150 152 148 148 149 152 156 162 170 178 188 200 215 209 196 198 191 194 214 224 225 228 226 243 253 268 277 287 302 306 309 307 302 300 303 313
219 196 178 177 174 161 155 152 153 153 152 152 152 159 159 162 164 165 167 171 174 185 193 200 211 219 222 222 216 225 234 244 251 259 267 278 286 293 298 297 297 293 293 298 302
195 182 173 171 162 155 156 159 161 160 157 158 158 161 165 168 171 173 173 186 191 200 204 214 220 214 216 224 226 230 234 244 255 264 275 283 285 295 296 298 294 298 306 303 305
186 177 172 166 163 163 166 168 167 165 166 162 163 169 170 169 180 190 191 197 203 209 217 221 228 223 224 230 234 239 244 252 260 268 275 275 287 303 298 304 304 303 298 299 300
182 181 170 169 170 171 174 173 173 175 169 169 174 181 180 189 194 204 211 215 216 218 220 219 221 221 219 222 227 232 237 246 257 266 273 283 297 308 298 285 282 298 308 318 320
180 181 170 174 177 177 178 178 177 176 178 180 188 207 214 221 229 233 234 231 227 226 222 213 208 210 199 199 207 219 225 245 262 279 282 354 102 68 21 338 339 337 328 328 325
182 179 174 180 181 181 181 179 181 182 186 192 210 231 237 237 237 239 235 232 230 217 215 209 198 199 202 206 207 211 211 215 226 238 240 267 312 316 329 333 336 333 332 331 326
184 179 179 183 184 183 185 181 173 177 190 201 224 244 238 226 223 221 221 224 212 202 209 201 199 201 195 199 203 197 210 234 251 262 275 286 311 307 316 319 322 327 329 329 330
185 180 183 186 186 184 187 187 189 193 203 220 254 245 229 217 215 216 219 219 212 207 206 206 202 198 194 198 206 217 239 267 267 277 284 295 302 302 308 314 319 324 325 325 323
187 184 185 188 187 188 191 193 197 200 207 238 262 253 234 222 218 217 218 212 207 205 205 206 201 202 208 210 221 233 251 269 275 278 282 291 298 299 305 313 315 319 321 321 319
188 187 190 188 188 191 194 197 201 204 217 231 291 318 239 228 218 217 211 207 204 209 210 210 210 214 220 224 233 239 252 265 273 277 282 290 298 301 304 307 310 314 318 319 318
190 189 191 188 191 198 198 200 204 208 219 239 280 304 289 245 227 213 208 205 208 213 215 218 222 226 228 235 243 249 259 270 274 278 283 291 296 299 302 306 308 311 313 315 316
191 191 190 191 195 201 202 205 205 213 226 245 267 284 292 283 247 227 220 221 221 222 222 225 229 235 238 245 252 256 268 273 276 278 285 292 294 296 298 302 306 306 305 310 312